Regional Weather Roundup
Issued by NWS Newport/Morehead, NC

Current Version | Previous Version | Text Only | Print | Product List | Glossary Off
Versions: 1 2 3 4 5 6 7 8 9 10 11 12 13 14 15 16 17 18 19 20 21 22 23 24 25 26 27 28 29 30 31 32 33 34 35 36 37 38 39 40 41 42 43 44 45 46 47 48 49 50

000
ASUS42 KMHX 060312
RWRMHX
WEATHER ROUNDUP FOR EASTERN NORTH CAROLINA
NATIONAL WEATHER SERVICE NEWPORT/MOREHEAD CITY NC
1100 PM EDT TUE MAY 05 2015

NOTE: "FAIR" INDICATES FEW OR NO CLOUDS BELOW 12,000 FEET
WITH NO SIGNIFICANT WEATHER AND/OR OBSTRUCTIONS TO VISIBILITY

NCZ015>017-031-032-045>047-102-103-060400-
NORTH COAST

CITY           SKY/WX    TMP DP  RH WIND       PRES   REMARKS
EDENTON        MOCLDY    64  55  73 S7        30.31R
ELIZABETH CITY MOCLDY    64  53  67 S6        30.31R
KITTY HAWK     MOCLDY    66  58  76 CALM      30.30S
MANTEO         PTCLDY    65  60  84 S3        30.32R

$$

NCZ045>047-081-094-103-104-060400-
CENTRAL COAST

CITY           SKY/WX    TMP DP  RH WIND       PRES   REMARKS
FRISCO         PTCLDY    65  56  72 S7        30.31S
SWANQUARTER      N/A     66 N/A N/A S3        30.27S

$$

NCZ095-097-098-100-101-060400-
SOUTHERN COAST

CITY           SKY/WX    TMP DP  RH WIND       PRES   REMARKS
BEAUFORT       PTCLDY    60  56  86 CALM      30.30S
CEDAR ISLAND     N/A     64 N/A N/A S1        30.36S
JACKSONVILLE   CLEAR     59  56  89 CALM      30.29S
PINEY ISLAND   PTCLDY   N/A N/A N/A CALM      30.31R
WILMINGTON     PTCLDY    59  55  87 NE3       30.28F


$$

NCZ011>013-027>030-043-044-078>080-089-090>093-098-060400-
COASTAL PLAIN

CITY           SKY/WX    TMP DP  RH WIND       PRES   REMARKS
AHOSKIE        PTCLDY    64  51  62 CALM      30.30S
CLINTON        PTCLDY    63  56  76 CALM      30.29S
ELIZABETHTOWN  PTCLDY    61  53  75 CALM      30.29R
GOLDSBORO      MOCLDY    63  53  68 CALM      30.27S
GREENVILLE     PTCLDY    63  52  67 CALM      30.30F
HAVELOCK       PTCLDY    61  54  77 CALM      30.32R
KENANSVILLE    PTCLDY    56  52  86 CALM      30.31S
KINSTON        PTCLDY    60  53  77 S3        30.30S
NEW BERN       PTCLDY    58  52  80 CALM      30.32R
RICHLANDS      CLEAR     55  50  82 CALM      30.31S
ROCKY MOUNT    MOCLDY    65  51  60 S3        30.29R
WASHINGTON     PTCLDY    62  52  71 CALM      30.31S
WHITEVILLE     PTCLDY    60  56  85 CALM      30.28S

$$

AMZ130-135-150-152-154-156-158-170-250-252-270-ANZ085-086-088-633-658-670-060400-
MARINE OBSERVATIONS

STATION/POSITION TIME  TEMP    WIND        PRES    WAVE   SWELL
                       AIR SEA DIR/SP/G            HT/PER HT/PER
                 (UTC) (F)     (DEG/KT/KT) (MB)    (FT/S) (FT/S)
CHESAPEAKE LIGHT 0300   66     210/ 18/ 18 1026.2
64 E VA BEACH    0250   62 61  220/  8/  8 1026.0    2/11   2/11
DUCK             0200   68 52  180/ 10/ 12 1025.0
2 E DUCK         0211      55                N/A     1/11
OREGON INLET     0200   69 72  180/  9/ 12 1026.3
13E OREGON INLT  0300      60                N/A     2/11   2/11
HATTERAS CG      0200   69 69  160/  6/  9 1025.8
DIAMOND BUOY     0250   71 75  160/ 12/ 14 1026.1    3/11   2/11
CAPE LOOKOUT     0300   68     130/  4/  4 1025.8
BEAUFORT LAB     0200   67 68  150/  5/  5 1025.0
27 SE WRIGHTSVLE 0200   68 71  150/  8/ 10   N/A
5 SE WRIGHTSVLE  0208   70 69  140/  4/  8 1025.3
225 S CAPE HAT   0250   70 70  110/ 17/ 21 1024.2    6/ 7   2/11
41 SE CHARLESTON 0250   74 73   90/ 14/ 16 1023.4    4/ 7   2/ 7

$$



USA.gov is the U.S. government's official web portal to all federal, state and local government web resources and services.